Tracking 31030 objects as of 16-Jul-2025
HD Live streaming from Space Station
objects crossing your sky now

CZ-6A DEB

Track CZ-6A DEB now!
10-day predictions


NORAD ID: 54557
Int'l Code: 2022-151LH
Perigee: 647.4 km
Apogee: 836.0 km
Inclination: 98.6 °
Period: 99.5 minutes
Semi major axis: 7112 km
RCS: Unknown
Launch date: November 11, 2022
Source: People's Republic of China (PRC)
Launch site: Taiyaun Space Center, China (TSC)

Note: This is SATELLITE DEBRIS
Your satellite tracking list
Your tracking list is empty




NASA's NSSDC Master Catalog

Two Line Element Set (TLE):
1 54557U 22151LH  25197.59320841  .00000546  00000-0  14679-3 0  9998
2 54557  98.6256 239.2027 0132569 231.2181 127.7109 14.47282878140938
Source of the keplerian elements: AFSPC